Decatur, IL

1:58 PM CDT on September 30, 2016 (GMT -0500)
Decatur

Weather History for KDEC - April, 2012

Change the Weather History Date:

Tuesday, April 24, 2012

  Actual Average Record
Temperature  
Mean Temperature 57 °F 56 °F  
Max Temperature 68 °F 67 °F 80 °F (2007)
Min Temperature 46 °F 45 °F 31 °F (2015)
Degree Days  
Heating Degree Days 8 10  
Month to date heating degree days 251 329  
Since 1 July heating degree days 4133 5313  
Cooling Degree Days 0 1  
Month to date cooling degree days 19 2  
Year to date cooling degree days 58 3  
Growing Degree Days 6 (Base 50)    
Moisture  
Dew Point 40 °F    
Average Humidity 58    
Maximum Humidity 74    
Minimum Humidity 42    
Precipitation  
Precipitation T in 0.13 in 0.90 in (2002)
Month to date precipitation 1.55 2.71  
Year to date precipitation 5.58 9.07  
Sea Level Pressure  
Sea Level Pressure 29.78 in    
Wind  
Wind Speed 8 mph (WSW)    
Max Wind Speed 20 mph    
Max Gust Speed 23 mph    
Visibility 10 miles    
Events      
T = Trace of Precipitation, MM = Missing Value Source: NWS Daily Summary

Daily Weather History Graph

Daily Weather History Graph

Search for Another Location

Airport or City:

Trip Planner

Search our weather history database for the weather conditions in past years. The results will help you decide how hot, cold, wet, or windy it might be!

Date:

Astronomy

Apr. 24, 2012 Rise Set
Actual Time 6:04 AM CDT 7:43 PM CDT
Civil Twilight 5:35 AM CDT 8:12 PM CDT
Nautical Twilight 5:01 AM CDT 8:46 PM CDT
Astronomical Twilight 4:24 AM CDT 9:23 PM CDT
Moon 8:00 AM CDT (4/24) 11:03 PM CDT (4/24)
Length of Visible Light 14h 36m
Length of Day
13h 39m
Waxing Crescent, 10% of the Moon is Illuminated
Apr 24
Waxing Crescent
Apr 29
First Quarter
May 5
Full
May 12
Last Quarter
May 20
New

Hourly Weather History & Observations

Time (CDT) Temp. Dew Point Humidity Pressure Visibility Wind Dir Wind Speed Gust Speed Precip Events Conditions
12:54 AM 46.9 °F 32.0 °F 56% 29.86 in 10.0 mi West 5.8 mph - N/A   Clear
1:54 AM 46.9 °F 34.0 °F 61% 29.84 in 10.0 mi West 6.9 mph - N/A   Clear
2:54 AM 48.9 °F 35.1 °F 59% 29.83 in 10.0 mi West 10.4 mph - N/A   Clear
3:54 AM 48.9 °F 36.0 °F 61% 29.83 in 10.0 mi West 11.5 mph - N/A   Overcast
4:54 AM 50.0 °F 37.9 °F 63% 29.83 in 10.0 mi WNW 9.2 mph - N/A   Overcast
5:54 AM 48.9 °F 37.9 °F 66% 29.84 in 10.0 mi WNW 10.4 mph - N/A   Overcast
6:54 AM 48.9 °F 37.9 °F 66% 29.84 in 10.0 mi WNW 10.4 mph - N/A   Overcast
7:54 AM 51.1 °F 39.0 °F 63% 29.86 in 10.0 mi WNW 9.2 mph - N/A   Overcast
8:54 AM 53.1 °F 39.9 °F 61% 29.87 in 10.0 mi NW 10.4 mph - N/A   Overcast
9:54 AM 57.0 °F 39.9 °F 53% 29.86 in 10.0 mi NW 6.9 mph - N/A   Partly Cloudy
10:54 AM 59.0 °F 39.9 °F 49% 29.84 in 10.0 mi West 5.8 mph - N/A   Clear
11:54 AM 61.0 °F 37.9 °F 42% 29.83 in 10.0 mi Calm Calm - N/A   Scattered Clouds
12:54 PM 62.1 °F 39.0 °F 43% 29.81 in 10.0 mi WNW 3.5 mph - N/A   Scattered Clouds
1:54 PM 62.1 °F 39.9 °F 44% 29.78 in 10.0 mi South 6.9 mph - N/A   Overcast
2:54 PM 64.0 °F 41.0 °F 43% 29.75 in 10.0 mi SSW 9.2 mph - 0.00 in   Mostly Cloudy
3:54 PM 66.9 °F 42.1 °F 40% 29.72 in 10.0 mi SSW 12.7 mph - N/A   Mostly Cloudy
4:54 PM 66.9 °F 44.1 °F 44% 29.69 in 10.0 mi South 9.2 mph - N/A   Mostly Cloudy
5:54 PM 66.0 °F 48.0 °F 52% 29.69 in 10.0 mi SW 11.5 mph - N/A   Mostly Cloudy
6:54 PM 64.9 °F 45.0 °F 48% 29.67 in 10.0 mi South 6.9 mph - N/A   Clear
7:54 PM 60.1 °F 46.0 °F 60% 29.67 in 10.0 mi SSE 6.9 mph - N/A   Clear
8:54 PM 57.9 °F 46.9 °F 67% 29.68 in 10.0 mi SE 9.2 mph - N/A   Clear
9:54 PM 55.0 °F 45.0 °F 69% 29.69 in 10.0 mi ESE 6.9 mph - N/A   Clear
10:54 PM 54.0 °F 44.1 °F 69% 29.68 in 10.0 mi ESE 5.8 mph - N/A   Clear
11:54 PM 50.0 °F 43.0 °F 77% 29.67 in 10.0 mi East 4.6 mph - N/A   Clear